DW2633 Weather Reports


time (UTC)temp
C
wind
direction
speed
KPH
gust
KPH
rain 1hr
cm
rain 24hr
cm
rain mn
cm
humidity
%
barometer
mb
20260903125503 18 223 1.6 0.0 0.00 0.00 0.00 97 1012.0
20260903125004 18 223 3.2 0.0 0.00 0.00 0.00 97 1012.2
20260903124504 18 223 3.2 0.0 0.00 0.00 0.00 97 1012.2
20260903124002 18 219 3.2 0.0 0.00 0.00 0.00 97 1012.1
20260903123504 18 225 1.6 0.0 0.00 0.00 0.00 97 1012.1
20260903123100 18 183 0.0 0.0 0.00 0.00 0.00 97 1012.1
20260903122602 18 178 0.0 0.0 0.00 0.00 0.00 97 1012.1
20260903122059 17 161 1.6 0.0 0.00 0.00 0.00 97 1012.2
20260903121559 17 163 0.0 0.0 0.00 0.00 0.00 97 1012.2
20260903121057 17 219 0.0 0.0 0.00 0.00 0.00 97 1012.3
20260903120557 17 219 1.6 0.0 0.00 0.00 0.00 97 1012.3
20260903120057 17 219 0.0 0.0 0.00 0.00 0.00 97 1012.3
20260903115556 17 219 0.0 0.0 0.00 0.00 0.00 97 1012.4
20260903115056 17 219 0.0 0.0 0.00 0.00 0.00 97 1012.3
20260903114556 17 219 0.0 0.0 0.00 0.00 0.00 97 1012.3
20260903114055 17 219 1.6 0.0 0.00 0.00 0.00 97 1012.2
20260903113554 17 219 1.6 0.0 0.00 0.00 0.00 97 1012.2
20260903113054 17 219 1.6 0.0 0.00 0.00 0.00 97 1012.4
20260903112556 17 218 1.6 0.0 0.00 0.00 0.00 97 1012.4
20260903112054 17 217 1.6 0.0 0.00 0.00 0.00 96 1012.4
20260903111603 17 217 3.2 0.0 0.00 0.00 0.00 96 1012.4
20260903111053 17 221 3.2 0.0 0.00 0.00 0.00 96 1012.5
20260903110556 17 220 3.2 0.0 0.00 0.00 0.00 96 1012.5
20260903110053 17 219 3.2 0.0 0.00 0.00 0.00 96 1012.5
20260903105553 17 218 1.6 0.0 0.00 0.00 0.00 96 1012.4
20260903105053 17 202 0.0 0.0 0.00 0.00 0.00 96 1012.5
20260903104554 17 148 0.0 0.0 0.00 0.00 0.00 96 1012.4
20260903104053 17 148 1.6 0.0 0.00 0.00 0.00 96 1012.4
20260903103552 17 148 1.6 0.0 0.00 0.00 0.00 96 1012.2
20260903103052 17 148 1.6 0.0 0.00 0.00 0.00 96 1012.2
20260903102553 17 148 0.0 0.0 0.00 0.00 0.00 96 1012.2
20260903102051 17 148 0.0 0.0 0.00 0.00 0.00 96 1012.1
20260903101557 17 148 0.0 0.0 0.00 0.00 0.00 96 1012.2
20260903101051 17 148 0.0 0.0 0.00 0.00 0.00 96 1012.2
20260903100551 17 148 1.6 0.0 0.00 0.00 0.00 96 1012.2
20260903100054 17 148 4.8 0.0 0.00 0.00 0.00 96 1012.3
20260903095550 17 149 6.4 0.0 0.00 0.00 0.00 96 1012.3
20260903095050 17 139 6.4 0.0 0.00 0.00 0.00 96 1012.3
20260903094556 17 134 6.4 0.0 0.00 0.00 0.00 96 1012.2
20260903094051 17 141 8.0 0.0 0.00 0.00 0.00 96 1012.2
20260903093621 17 136 8.0 0.0 0.00 0.00 0.00 96 1012.1
20260903093057 17 134 6.4 0.0 0.00 0.00 0.00 96 1012.2
20260903092551 17 134 6.4 0.0 0.00 0.00 0.00 96 1012.3
20260903092049 17 134 6.4 0.0 0.00 0.00 0.00 96 1012.2
20260903091549 17 137 6.4 0.0 0.00 0.00 0.00 96 1012.1
20260903091049 17 138 6.4 0.0 0.00 0.00 0.00 96 1012.0
20260903090549 17 136 4.8 0.0 0.00 0.00 0.00 96 1011.9
20260903090049 17 144 3.2 0.0 0.00 0.00 0.00 96 1012.1
20260903085548 17 163 6.4 0.0 0.00 0.00 0.00 96 1012.2
20260903085049 17 138 6.4 0.0 0.00 0.00 0.00 96 1012.0
20260903084548 17 137 6.4 0.0 0.00 0.00 0.00 96 1012.1
20260903084048 17 134 6.4 0.0 0.00 0.00 0.00 96 1012.1
20260903083547 17 152 6.4 0.0 0.00 0.00 0.00 96 1012.1
20260903083052 17 135 8.0 0.0 0.00 0.00 0.00 96 1012.2
20260903082548 17 137 6.4 0.0 0.00 0.00 0.00 96 1012.4
20260903082045 17 140 6.4 0.0 0.00 0.00 0.00 96 1012.4
20260903081548 17 131 6.4 0.0 0.00 0.00 0.00 96 1012.2
20260903081045 17 151 6.4 0.0 0.00 0.00 0.00 96 1012.3
20260903080548 17 137 8.0 0.0 0.00 0.00 0.00 96 1012.3
20260903080048 17 133 9.7 0.0 0.00 0.00 0.00 96 1012.3
20260903075544 17 135 11.3 0.0 0.00 0.00 0.00 96 1012.3
20260903075044 17 135 9.7 0.0 0.00 0.00 0.00 96 1012.2
20260903074545 17 132 9.7 0.0 0.00 0.00 0.00 96 1012.3
20260903074044 17 136 11.3 0.0 0.00 0.00 0.00 96 1012.3
20260903073543 17 136 11.3 0.0 0.00 0.00 0.00 96 1012.4
20260903073043 17 133 9.7 0.0 0.00 0.00 0.00 96 1012.4
20260903072542 17 128 9.7 0.0 0.00 0.00 0.00 96 1012.4
20260903072042 17 148 9.7 0.0 0.00 0.00 0.00 96 1012.4
20260903071543 17 135 11.3 0.0 0.00 0.00 0.00 96 1012.4
20260903071042 17 140 12.9 0.0 0.00 0.00 0.00 96 1012.4
20260903070544 17 130 11.3 0.0 0.00 0.00 0.00 96 1012.5
20260903070041 17 155 11.3 0.0 0.00 0.00 0.00 96 1012.4
20260903065541 17 111 12.9 0.0 0.00 0.00 0.00 96 1012.4
20260903065040 17 126 12.9 0.0 0.00 0.00 0.00 96 1012.4
20260903064542 17 134 12.9 0.0 0.00 0.00 0.00 96 1012.4
20260903064040 17 129 11.3 0.0 0.00 0.00 0.00 96 1012.4
20260903063539 17 140 9.7 0.0 0.00 0.00 0.00 96 1012.4
20260903063039 17 129 9.7 0.0 0.00 0.00 0.00 96 1012.3
20260903062539 17 134 11.3 0.0 0.00 0.00 0.00 96 1012.3
20260903062039 17 131 14.5 0.0 0.00 0.00 0.00 96 1012.3
20260903061550 17 135 12.9 0.0 0.00 0.00 0.00 96 1012.2
20260903061037 17 130 9.7 0.0 0.00 0.00 0.00 96 1012.4
20260903060536 17 130 8.0 0.0 0.00 0.00 0.00 96 1012.5
20260903060040 17 136 9.7 0.0 0.00 0.00 0.00 96 1012.5
20260903055535 17 123 8.0 0.0 0.00 0.00 0.00 95 1012.6
20260903055035 17 133 9.7 0.0 0.00 0.00 0.00 95 1012.6
20260903054536 17 148 8.0 0.0 0.00 0.00 0.00 95 1012.5
20260903054035 17 156 4.8 0.0 0.00 0.00 0.00 95 1012.6
20260903053535 17 157 8.0 0.0 0.00 0.00 0.00 95 1012.7
20260903053035 17 138 9.7 0.0 0.00 0.00 0.00 95 1012.6
20260903052536 17 138 8.0 0.0 0.00 0.00 0.00 95 1012.8
20260903052034 17 124 6.4 0.0 0.00 0.00 0.00 95 1012.8
20260903051533 17 162 4.8 0.0 0.00 0.00 0.00 95 1013.0
20260903051034 17 130 6.4 0.0 0.00 0.00 0.00 95 1013.1
20260903050533 17 130 6.4 0.0 0.00 0.00 0.00 95 1013.1
20260903050034 17 128 4.8 0.0 0.00 0.00 0.00 95 1013.1
20260903045533 17 148 3.2 0.0 0.00 0.00 0.00 95 1013.2
20260903045036 17 148 3.2 0.0 0.00 0.00 0.00 95 1013.1
20260903044536 17 157 6.4 0.0 0.00 0.00 0.00 95 1013.0
20260903044035 17 150 8.0 0.0 0.00 0.00 0.00 95 1013.2
20260903043532 17 128 3.2 0.0 0.00 0.00 0.00 95 1013.2
20260903043040 17 215 4.8 0.0 0.00 0.00 0.00 95 1013.1
20260903042532 17 221 6.4 0.0 0.00 0.00 0.00 95 1013.2
20260903042032 17 128 4.8 0.0 0.00 0.00 0.00 94 1013.1
20260903041531 17 147 6.4 0.0 0.00 0.00 0.00 94 1012.9
20260903041030 17 190 6.4 0.0 0.00 0.00 0.00 94 1012.8
20260903040530 17 154 6.4 0.0 0.00 0.00 0.00 94 1012.7
20260903040029 17 172 11.3 0.0 0.00 0.00 0.00 94 1012.8
20260903035530 17 142 14.5 0.0 0.00 0.00 0.00 94 1012.1
20260903035028 17 143 14.5 0.0 0.00 0.00 0.00 94 1012.2
20260903034538 17 135 14.5 0.0 0.00 0.00 0.00 93 1012.5
20260903034025 17 152 14.5 0.0 0.00 0.00 0.00 93 1012.8
20260903033524 17 127 14.5 0.0 0.00 0.00 0.00 92 1013.3
20260903033023 17 134 12.9 0.0 0.00 0.00 0.00 92 1013.5
20260903032526 17 118 11.3 0.0 0.00 0.00 0.00 92 1013.9
20260903032021 17 122 11.3 0.0 0.00 0.00 0.00 91 1013.9
20260903031521 17 164 9.7 0.0 0.00 0.00 0.00 90 1013.9
20260903031021 17 151 11.3 0.0 0.00 0.00 0.00 90 1013.9
20260903030521 17 134 11.3 0.0 0.00 0.00 0.00 89 1014.0
20260903030021 17 138 11.3 0.0 0.00 0.00 0.00 89 1013.9
20260903025520 17 158 11.3 0.0 0.00 0.00 0.00 88 1013.9
20260903025020 17 151 11.3 0.0 0.00 0.00 0.00 88 1013.9
20260903024520 17 149 11.3 0.0 0.00 0.00 0.00 88 1014.0
20260903024019 17 138 9.7 0.0 0.00 0.00 0.00 88 1014.1
20260903023518 17 126 9.7 0.0 0.00 0.00 0.00 87 1014.1
20260903023019 17 123 11.3 0.0 0.00 0.00 0.00 87 1014.2
20260903022518 17 135 12.9 0.0 0.00 0.00 0.00 87 1014.2
20260903022018 17 120 11.3 0.0 0.00 0.00 0.00 87 1014.1
20260903021522 17 132 8.0 0.0 0.00 0.00 0.00 87 1014.2
20260903021017 17 153 6.4 0.0 0.00 0.00 0.00 86 1014.4
20260903020518 17 140 9.7 0.0 0.00 0.00 0.00 86 1014.5
20260903020036 17 147 8.0 0.0 0.00 0.00 0.00 86 1014.7
20260903015522 17 146 8.0 0.0 0.00 0.00 0.00 86 1014.8
20260903015018 17 127 8.0 0.0 0.00 0.00 0.00 86 1015.2
20260903014517 17 158 8.0 0.0 0.00 0.00 0.00 86 1015.3
20260903014018 17 165 6.4 0.0 0.00 0.00 0.00 86 1015.1
20260903013520 17 151 8.0 0.0 0.00 0.00 0.00 86 1015.1
20260903013016 17 144 8.0 0.0 0.00 0.00 0.00 86 1015.2
20260903012518 17 150 8.0 0.0 0.00 0.00 0.00 86 1015.3
20260903012020 17 130 4.8 0.0 0.00 0.00 0.00 85 1015.3
20260903011516 17 136 4.8 0.0 0.00 0.00 0.00 85 1015.4
20260903011016 17 164 3.2 0.0 0.00 0.00 0.00 84 1015.5
20260903010515 17 175 3.2 0.0 0.00 0.00 0.00 84 1015.6
20260903010016 18 204 1.6 0.0 0.00 0.00 0.00 84 1015.7
20260903005517 18 178 3.2 0.0 0.00 0.00 0.00 83 1015.8
20260903005015 17 183 4.8 0.0 0.00 0.00 0.00 83 1015.6
20260903004515 18 171 4.8 0.0 0.00 0.00 0.00 84 1015.9
20260903004020 18 237 3.2 0.0 0.00 0.00 0.00 83 1015.8
20260903003515 18 219 3.2 0.0 0.00 0.00 0.00 84 1015.6
20260903003014 18 170 4.8 0.0 0.00 0.00 0.00 84 1015.5
20260903002514 18 141 6.4 0.0 0.00 0.00 0.00 84 1015.6
20260903002014 18 146 6.4 0.0 0.00 0.00 0.00 84 1015.4
20260903001514 18 149 6.4 0.0 0.00 0.00 0.00 85 1015.4
20260903001013 18 219 8.0 0.0 0.00 0.00 0.00 84 1015.3
20260903000519 18 158 8.0 0.0 0.00 0.00 0.00 85 1015.3
20260903000014 18 185 8.0 0.0 0.00 0.00 0.00 85 1015.0
20260902235514 18 153 9.7 0.0 0.00 0.00 0.00 85 1014.8
20260902235013 18 172 11.3 0.0 0.00 0.00 0.00 86 1014.5
20260902234518 18 155 9.7 0.0 0.00 0.00 0.00 86 1014.3
20260902234013 18 148 11.3 0.0 0.00 0.00 0.00 86 1014.2
20260902233512 18 156 14.5 0.0 0.00 0.00 0.00 85 1014.0
20260902233015 18 167 12.9 0.0 0.00 0.00 0.00 86 1014.1
20260902232512 18 121 11.3 0.0 0.00 0.00 0.00 86 1014.4
20260902232011 18 150 9.7 0.0 0.00 0.00 0.00 86 1014.1
20260902231515 18 119 9.7 0.0 0.00 0.00 0.00 86 1014.3
20260902231011 18 122 11.3 0.0 0.00 0.00 0.00 86 1014.2
20260902230510 18 134 11.3 0.0 0.00 0.00 0.00 86 1014.1
20260902230009 18 171 6.4 0.0 0.00 0.00 0.00 86 1014.8
20260902225507 18 149 3.2 0.0 0.00 0.00 0.00 86 1015.3
20260902225007 18 217 4.8 0.0 0.00 0.00 0.00 86 1015.5
20260902224506 18 148 3.2 0.0 0.00 0.00 0.00 86 1015.8
20260902224005 18 159 1.6 0.0 0.00 0.00 0.00 86 1016.0
20260902223505 18 150 1.6 0.0 0.00 0.00 0.00 86 1016.3
20260902223005 18 139 1.6 0.0 0.00 0.00 0.00 85 1016.3
20260902222505 18 128 3.2 0.0 0.00 0.00 0.00 86 1016.4
20260902222004 18 119 3.2 0.0 0.00 0.00 0.00 85 1016.4
20260902221506 18 135 4.8 0.0 0.00 0.00 0.00 86 1016.5
20260902221004 18 185 6.4 0.0 0.00 0.00 0.00 86 1016.6
20260902220504 18 175 4.8 0.0 0.00 0.00 0.00 86 1016.5
20260902220005 18 121 3.2 0.0 0.00 0.00 0.00 86 1016.5
20260902215503 18 198 3.2 0.0 0.00 0.00 0.00 86 1016.6
20260902215003 18 148 3.2 0.0 0.00 0.00 0.00 86 1016.7
20260902214504 18 224 4.8 0.0 0.00 0.00 0.00 87 1016.6
20260902214004 18 119 4.8 0.0 0.00 0.00 0.00 86 1016.7
20260902213502 18 244 8.0 0.0 0.00 0.00 0.00 85 1016.9
20260902213002 18 196 9.7 0.0 0.00 0.00 0.00 86 1016.8
20260902212503 18 144 9.7 0.0 0.00 0.00 0.00 86 1016.7
20260902212002 19 148 9.7 0.0 0.00 0.00 0.00 85 1016.6
20260902211502 19 148 9.7 0.0 0.00 0.00 0.00 86 1016.6
20260902211002 19 129 9.7 0.0 0.00 0.00 0.00 85 1016.6
20260902210502 19 159 8.0 0.0 0.00 0.00 0.00 85 1016.6
20260902210004 19 146 9.7 0.0 0.00 0.00 0.00 85 1016.8
20260902205504 19 225 8.0 0.0 0.00 0.00 0.00 85 1016.9
20260902205003 19 142 8.0 0.0 0.00 0.00 0.00 85 1016.9
20260902204505 19 117 11.3 0.0 0.00 0.00 0.00 85 1016.9
20260902204001 19 121 12.9 0.0 0.00 0.00 0.00 85 1016.7
20260902203500 19 128 9.7 0.0 0.00 0.00 0.00 85 1016.6
20260902203102 19 167 9.7 0.0 0.00 0.00 0.00 84 1016.7
20260902202559 19 136 9.7 0.0 0.00 0.00 0.00 86 1016.7
20260902202059 19 147 12.9 0.0 0.00 0.00 0.00 86 1016.6
20260902201605 19 148 14.5 0.0 0.00 0.00 0.00 86 1016.4
20260902201100 19 117 12.9 0.0 0.00 0.00 0.00 87 1016.6
20260902200556 19 159 12.9 0.0 0.00 0.00 0.00 86 1016.8
20260902200056 18 126 12.9 0.0 0.00 0.00 0.00 86 1017.1
20260902195555 18 141 11.3 0.0 0.00 0.00 0.00 86 1016.9
20260902195057 18 130 9.7 0.0 0.00 0.00 0.00 87 1017.1
20260902194556 18 145 8.0 0.0 0.00 0.00 0.00 87 1017.2
20260902194056 18 155 6.4 0.0 0.00 0.00 0.00 87 1017.1
20260902193554 18 149 8.0 0.0 0.00 0.00 0.00 86 1017.0
20260902193058 18 122 11.3 0.0 0.00 0.00 0.00 87 1016.8
20260902192553 18 149 12.9 0.0 0.00 0.00 0.00 86 1016.9
20260902192053 18 125 11.3 0.0 0.00 0.00 0.00 87 1017.1
20260902191553 18 77 11.3 0.0 0.00 0.00 0.00 86 1017.3
20260902191052 18 136 12.9 0.0 0.00 0.00 0.00 86 1016.9
20260902190552 18 163 12.9 0.0 0.00 0.00 0.00 87 1016.9
20260902190051 18 144 9.7 0.0 0.00 0.00 0.00 87 1017.0
20260902185551 18 131 6.4 0.0 0.00 0.00 0.00 88 1017.2
20260902185051 18 153 8.0 0.0 0.00 0.00 0.00 87 1017.4
20260902184555 18 142 11.3 0.0 0.00 0.00 0.00 87 1017.3
20260902184055 18 135 9.7 0.0 0.00 0.00 0.00 86 1017.3
20260902183550 18 160 8.0 0.0 0.00 0.00 0.00 86 1017.5
20260902183050 18 135 9.7 0.0 0.00 0.00 0.00 87 1017.4
20260902182549 18 140 11.3 0.0 0.00 0.00 0.00 87 1017.4
20260902182049 18 116 12.9 0.0 0.00 0.00 0.00 87 1017.4
20260902181554 18 137 11.3 0.0 0.00 0.00 0.00 87 1017.4
20260902181050 18 118 8.0 0.0 0.00 0.00 0.00 89 1017.4
20260902180549 18 122 8.0 0.0 0.00 0.00 0.00 90 1017.6
20260902180049 17 104 8.0 0.0 0.00 0.00 0.00 90 1017.6
20260902175549 17 140 6.4 0.0 0.00 0.00 0.00 91 1017.6
20260902175049 17 148 6.4 0.0 0.00 0.00 0.00 92 1017.8
20260902174550 17 161 6.4 0.0 0.00 0.00 0.00 91 1017.7
20260902174049 17 146 3.2 0.0 0.00 0.00 0.00 90 1017.8
20260902173548 17 156 1.6 0.0 0.00 0.00 0.00 89 1018.4
20260902173050 17 128 1.6 0.0 0.00 0.00 0.00 88 1018.3
20260902172549 17 123 4.8 0.0 0.00 0.00 0.00 88 1018.3
20260902172048 17 105 4.8 0.0 0.00 0.00 0.00 88 1017.7
20260902171603 17 174 6.4 0.0 0.00 0.00 0.00 88 1017.6
20260902171047 17 185 4.8 0.0 0.00 0.00 0.00 87 1017.8
20260902170549 17 213 4.8 0.0 0.00 0.00 0.00 87 1017.6
20260902170048 17 156 6.4 0.0 0.00 0.00 0.00 87 1017.5
20260902165547 17 151 6.4 0.0 0.00 0.00 0.00 88 1017.5
20260902165047 17 123 4.8 0.0 0.00 0.00 0.00 88 1017.4
20260902164547 17 161 6.4 0.0 0.00 0.00 0.00 88 1017.7
20260902164050 17 165 8.0 0.0 0.00 0.00 0.00 87 1017.8
20260902163547 17 127 8.0 0.0 0.00 0.00 0.00 88 1017.7
20260902163046 17 127 9.7 0.0 0.00 0.00 0.00 88 1017.8
20260902162545 17 119 8.0 0.0 0.00 0.00 0.00 89 1017.9
20260902162050 17 125 8.0 0.0 0.00 0.00 0.00 88 1018.1
20260902161545 17 140 6.4 0.0 0.00 0.00 0.00 88 1018.2
20260902161044 17 159 4.8 0.0 0.00 0.00 0.00 88 1018.3
20260902160544 17 132 4.8 0.0 0.00 0.00 0.00 88 1018.5
20260902160053 17 132 4.8 0.0 0.00 0.00 0.00 88 1018.4
20260902155544 17 140 6.4 0.0 0.00 0.00 0.00 89 1018.2
20260902155044 17 116 8.0 0.0 0.00 0.00 0.00 89 1018.2
20260902154545 17 159 6.4 0.0 0.00 0.00 0.00 89 1018.4
20260902154043 17 130 4.8 0.0 0.00 0.00 0.00 89 1018.5
20260902153542 17 129 4.8 0.0 0.00 0.00 0.00 88 1018.5
20260902153042 17 154 6.4 0.0 0.00 0.00 0.00 88 1018.4
20260902152541 17 148 6.4 0.0 0.00 0.00 0.00 88 1018.6
20260902152041 17 167 8.0 0.0 0.00 0.00 0.00 89 1018.6
20260902151542 17 119 8.0 0.0 0.00 0.00 0.00 89 1018.6
20260902151043 16 114 6.4 0.0 0.00 0.00 0.00 89 1018.7
20260902150540 16 128 4.8 0.0 0.00 0.00 0.00 89 1018.8
20260902150041 16 136 6.4 0.0 0.00 0.00 0.00 91 1018.7
20260902145541 16 132 6.4 0.0 0.00 0.00 0.00 90 1018.6
20260902145040 16 144 4.8 0.0 0.00 0.00 0.00 91 1018.6
20260902144541 16 192 8.0 0.0 0.00 0.00 0.00 91 1018.6
20260902144040 16 119 6.4 0.0 0.00 0.00 0.00 91 1018.6
20260902143539 16 148 8.0 0.0 0.00 0.00 0.00 92 1018.6
20260902143043 16 137 11.3 0.0 0.00 0.00 0.00 92 1018.6
20260902142539 16 130 9.7 0.0 0.00 0.00 0.00 93 1018.6
20260902142038 16 126 6.4 0.0 0.00 0.00 0.00 93 1018.7
20260902141537 16 113 4.8 0.0 0.00 0.00 0.00 92 1018.8
20260902141036 16 150 6.4 0.0 0.00 0.00 0.00 93 1018.7
20260902140540 16 133 8.0 0.0 0.00 0.00 0.00 93 1018.7
20260902140038 16 142 8.0 0.0 0.00 0.00 0.00 93 1018.5
20260902135539 16 146 6.4 0.0 0.00 0.00 0.00 92 1018.3
20260902135038 16 140 9.7 0.0 0.00 0.00 0.00 92 1018.4
20260902134540 16 156 9.7 0.0 0.00 0.00 0.00 92 1018.3
20260902134035 16 142 6.4 0.0 0.00 0.00 0.00 92 1018.4
20260902133534 16 132 6.4 0.0 0.00 0.00 0.00 91 1018.5
20260902133045 16 134 8.0 0.0 0.00 0.00 0.00 92 1018.4
20260902132533 16 139 8.0 0.0 0.00 0.00 0.00 92 1018.2
20260902132034 16 130 6.4 0.0 0.00 0.00 0.00 92 1018.3
20260902131535 16 161 6.4 0.0 0.00 0.00 0.00 92 1018.6
20260902131033 16 157 6.4 0.0 0.00 0.00 0.00 92 1018.6
20260902130532 16 157 4.8 0.0 0.00 0.00 0.00 92 1018.6
20260902130032 16 206 3.2 0.0 0.00 0.00 0.00 92 1018.6
20260902125531 17 132 4.8 0.0 0.00 0.00 0.00 92 1018.3